AAL32 KCMH-KCLE

Flight info

Callsign AAL32
Flight time 0h 36m
Altitude 15000
Route GEDDY ROLLN ROLLN2
Aircraft B738/M-SDE2E3FGHIRWXY/LB1

Departure

Time 2026-05-09 01:51
Airport John Glenn Columbus International Airport (KCMH)

Arrival

Time 2026-05-09 02:27
Airport Cleveland Hopkins International Airport (KCLE)
Time Latitude Longitude Altitude Speed Heading
2026-05-09 01:15 39.99648 -82.88560 821 ft 0 kts
2026-05-09 01:41 39.99647 -82.88560 824 ft 1 kts
2026-05-09 01:42 39.99632 -82.88563 821 ft 3 kts 16°
2026-05-09 01:42 39.99614 -82.88572 824 ft 3 kts 38°
2026-05-09 01:42 39.99602 -82.88590 824 ft 3 kts 69°
2026-05-09 01:42 39.99598 -82.88611 824 ft 1 kts 93°
2026-05-09 01:43 39.99598 -82.88613 824 ft 1 kts 94°
2026-05-09 01:46 39.99596 -82.88573 822 ft 14 kts 94°
2026-05-09 01:46 39.99587 -82.88393 824 ft 24 kts 94°
2026-05-09 01:47 39.99617 -82.88235 824 ft 20 kts 94°
2026-05-09 01:47 39.99604 -82.88021 824 ft 25 kts 94°
2026-05-09 01:47 39.99674 -82.87910 824 ft 22 kts
2026-05-09 01:47 39.99837 -82.87895 824 ft 28 kts
2026-05-09 01:48 39.99970 -82.87946 824 ft 14 kts 340°
2026-05-09 01:48 40.00001 -82.87950 824 ft 0 kts
2026-05-09 01:49 40.00039 -82.87945 821 ft 5 kts
2026-05-09 01:49 40.00046 -82.87944 824 ft 0 kts
2026-05-09 01:49 40.00108 -82.87938 823 ft 22 kts
2026-05-09 01:49 40.00165 -82.87992 823 ft 0 kts 270°
2026-05-09 01:50 40.00166 -82.88032 823 ft 16 kts 271°
2026-05-09 01:50 40.00194 -82.88558 825 ft 99 kts 274°
2026-05-09 01:50 40.00260 -82.89786 834 ft 168 kts 275°
2026-05-09 01:51 40.00391 -82.91415 1463 ft 187 kts 276°
2026-05-09 01:51 40.00524 -82.93020 2843 ft 161 kts 275°
2026-05-09 01:51 40.00705 -82.94292 4197 ft 132 kts 278°
2026-05-09 01:51 40.00978 -82.95545 4474 ft 166 kts 281°
2026-05-09 01:52 40.01369 -82.97199 4410 ft 207 kts 283°
2026-05-09 01:52 40.01804 -82.98954 5259 ft 192 kts 283°
2026-05-09 01:52 40.02260 -83.00491 6331 ft 177 kts 285°
2026-05-09 01:52 40.02772 -83.01976 6973 ft 184 kts 292°
2026-05-09 01:53 40.03568 -83.03431 7189 ft 215 kts 311°
2026-05-09 01:53 40.05036 -83.04282 7422 ft 256 kts 348°
2026-05-09 01:53 40.06882 -83.03957 7805 ft 287 kts 15°
2026-05-09 01:53 40.08610 -83.02467 8284 ft 312 kts 42°
2026-05-09 01:54 40.09902 -83.00161 8962 ft 324 kts 58°
2026-05-09 01:54 40.10963 -82.97486 8648 ft 336 kts 64°
2026-05-09 01:54 40.11930 -82.94695 8261 ft 337 kts 65°
2026-05-09 01:54 40.12885 -82.91908 8025 ft 331 kts 65°
2026-05-09 01:55 40.13825 -82.89225 7997 ft 318 kts 64°
2026-05-09 01:55 40.14757 -82.86634 8047 ft 314 kts 64°
2026-05-09 01:55 40.15706 -82.84042 8429 ft 319 kts 63°
2026-05-09 01:55 40.16682 -82.81411 9228 ft 323 kts 62°
2026-05-09 01:56 40.17676 -82.78758 10041 ft 327 kts 61°
2026-05-09 01:56 40.18696 -82.76049 10551 ft 341 kts 62°
2026-05-09 01:56 40.19789 -82.73164 10730 ft 366 kts 61°
2026-05-09 01:56 40.20953 -82.70102 10988 ft 386 kts 61°
2026-05-09 01:57 40.22157 -82.66926 11565 ft 386 kts 63°
2026-05-09 01:57 40.23330 -82.63817 12690 ft 380 kts 62°
2026-05-09 01:57 40.24526 -82.60650 13052 ft 396 kts 62°
2026-05-09 01:57 40.25765 -82.57372 13563 ft 405 kts 62°
2026-05-09 01:58 40.27017 -82.54053 14203 ft 410 kts 61°
2026-05-09 01:58 40.28295 -82.50661 14833 ft 414 kts 61°
2026-05-09 01:58 40.29556 -82.47310 15022 ft 422 kts 61°
2026-05-09 01:58 40.30880 -82.43795 15042 ft 437 kts 61°
2026-05-09 01:59 40.32227 -82.40209 15033 ft 440 kts 61°
2026-05-09 01:59 40.33578 -82.36605 15027 ft 440 kts 61°
2026-05-09 01:59 40.34925 -82.33005 15028 ft 439 kts 61°
2026-05-09 01:59 40.36269 -82.29408 15027 ft 439 kts 61°
2026-05-09 02:00 40.37612 -82.25813 15031 ft 439 kts 61°
2026-05-09 02:00 40.38955 -82.22217 15030 ft 439 kts 61°
2026-05-09 02:00 40.40284 -82.18657 15034 ft 440 kts 61°
2026-05-09 02:00 40.41628 -82.15049 15051 ft 440 kts 61°
2026-05-09 02:01 40.42970 -82.11441 15051 ft 440 kts 62°
2026-05-09 02:01 40.44313 -82.07825 15044 ft 441 kts 62°
2026-05-09 02:01 40.45659 -82.04198 15033 ft 441 kts 62°
2026-05-09 02:01 40.47003 -82.00570 15038 ft 441 kts 62°
2026-05-09 02:02 40.48341 -81.96953 15032 ft 437 kts 62°
2026-05-09 02:02 40.49642 -81.93431 15022 ft 421 kts 62°
2026-05-09 02:02 40.50895 -81.90032 15016 ft 406 kts 61°
2026-05-09 02:02 40.52153 -81.86735 15023 ft 397 kts 55°
2026-05-09 02:03 40.53880 -81.84123 15037 ft 373 kts 32°
2026-05-09 02:03 40.55313 -81.82870 15048 ft 363 kts 22°
2026-05-09 02:03 40.58404 -81.81443 15052 ft 354 kts
2026-05-09 02:03 40.60838 -81.80855 15049 ft 356 kts
2026-05-09 02:04 40.63304 -81.80320 15033 ft 355 kts
2026-05-09 02:04 40.64917 -81.79972 15030 ft 353 kts
2026-05-09 02:04 40.67337 -81.79442 15034 ft 353 kts
2026-05-09 02:04 40.69754 -81.78897 15034 ft 352 kts
2026-05-09 02:05 40.72159 -81.78345 15032 ft 351 kts
2026-05-09 02:05 40.74566 -81.77785 15034 ft 351 kts
2026-05-09 02:05 40.76968 -81.77222 15034 ft 351 kts
2026-05-09 02:05 40.79380 -81.76655 15029 ft 352 kts
2026-05-09 02:06 40.81789 -81.76089 15032 ft 352 kts
2026-05-09 02:06 40.84210 -81.75518 15030 ft 353 kts
2026-05-09 02:06 40.86628 -81.74948 15030 ft 353 kts
2026-05-09 02:07 40.91398 -81.74268 14526 ft 339 kts 354°
2026-05-09 02:07 40.93766 -81.74231 14017 ft 341 kts 353°
2026-05-09 02:07 40.96140 -81.74197 13591 ft 340 kts 354°
2026-05-09 02:07 40.98495 -81.74139 13145 ft 339 kts 355°
2026-05-09 02:08 41.00858 -81.74053 12742 ft 338 kts 355°
2026-05-09 02:08 41.03195 -81.73949 12428 ft 334 kts 355°
2026-05-09 02:08 41.05515 -81.73846 12038 ft 333 kts 355°
2026-05-09 02:08 41.07796 -81.73752 11655 ft 331 kts 355°
2026-05-09 02:09 41.10096 -81.73661 11282 ft 330 kts 356°
2026-05-09 02:09 41.12352 -81.73569 11212 ft 317 kts 356°
2026-05-09 02:09 41.14527 -81.73481 11135 ft 307 kts 356°
2026-05-09 02:09 41.16626 -81.73394 11058 ft 296 kts 355°
2026-05-09 02:10 41.18645 -81.73311 10977 ft 287 kts 355°
2026-05-09 02:10 41.20632 -81.73233 10746 ft 283 kts 355°
2026-05-09 02:10 41.22599 -81.73158 10473 ft 282 kts 356°
2026-05-09 02:10 41.24559 -81.73078 10200 ft 281 kts 356°
2026-05-09 02:11 41.26469 -81.73001 9919 ft 281 kts 356°
2026-05-09 02:11 41.28410 -81.72922 9668 ft 281 kts 357°
2026-05-09 02:11 41.30352 -81.72844 9479 ft 277 kts 357°
2026-05-09 02:11 41.32258 -81.72763 9382 ft 270 kts 357°
2026-05-09 02:12 41.34108 -81.72687 9322 ft 262 kts 357°
2026-05-09 02:12 41.35901 -81.72614 9251 ft 253 kts 357°
2026-05-09 02:12 41.37640 -81.72525 9174 ft 247 kts
2026-05-09 02:12 41.39214 -81.71692 8905 ft 254 kts 39°
2026-05-09 02:13 41.40470 -81.70045 8659 ft 252 kts 42°
2026-05-09 02:13 41.41704 -81.68387 8295 ft 253 kts 42°
2026-05-09 02:13 41.42939 -81.66720 7967 ft 252 kts 44°
2026-05-09 02:13 41.44142 -81.65028 7669 ft 250 kts 45°
2026-05-09 02:14 41.45328 -81.63343 7365 ft 250 kts 45°
2026-05-09 02:14 41.46511 -81.61657 7091 ft 248 kts 45°
2026-05-09 02:14 41.47667 -81.59946 6758 ft 248 kts 46°
2026-05-09 02:14 41.48826 -81.58268 6416 ft 245 kts 45°
2026-05-09 02:15 41.49997 -81.56614 6048 ft 246 kts 45°
2026-05-09 02:15 41.51160 -81.54954 5726 ft 244 kts 45°
2026-05-09 02:15 41.52302 -81.53308 5384 ft 240 kts 46°
2026-05-09 02:15 41.53429 -81.51655 5013 ft 241 kts 47°
2026-05-09 02:16 41.54537 -81.49998 4767 ft 235 kts 47°
2026-05-09 02:16 41.55601 -81.48397 4629 ft 223 kts 47°
2026-05-09 02:16 41.56603 -81.46897 4611 ft 208 kts 47°
2026-05-09 02:16 41.57564 -81.45477 4607 ft 206 kts 46°
2026-05-09 02:17 41.58523 -81.44078 4525 ft 209 kts 46°
2026-05-09 02:17 41.59572 -81.42714 4335 ft 205 kts 31°
2026-05-09 02:17 41.60861 -81.42085 4086 ft 201 kts
2026-05-09 02:17 41.62204 -81.42399 4055 ft 195 kts 330°
2026-05-09 02:18 41.63217 -81.43534 4022 ft 188 kts 300°
2026-05-09 02:18 41.63630 -81.45125 4001 ft 182 kts 269°
2026-05-09 02:18 41.63552 -81.46805 4006 ft 183 kts 254°
2026-05-09 02:18 41.63171 -81.48413 4027 ft 182 kts 251°
2026-05-09 02:19 41.62788 -81.50023 4019 ft 182 kts 251°
2026-05-09 02:19 41.62373 -81.51612 4002 ft 180 kts 242°
2026-05-09 02:19 41.61684 -81.52994 4033 ft 179 kts 233°
2026-05-09 02:19 41.60917 -81.54289 4039 ft 176 kts 231°
2026-05-09 02:20 41.60137 -81.55551 4026 ft 176 kts 231°
2026-05-09 02:20 41.59351 -81.56804 4019 ft 176 kts 230°
2026-05-09 02:20 41.58560 -81.58053 4020 ft 177 kts 230°
2026-05-09 02:20 41.57721 -81.59377 4021 ft 178 kts 230°
2026-05-09 02:21 41.56963 -81.60569 4010 ft 178 kts 230°
2026-05-09 02:21 41.56201 -81.61771 3989 ft 165 kts 230°
2026-05-09 02:21 41.55384 -81.63057 3990 ft 154 kts 230°
2026-05-09 02:21 41.54786 -81.63997 4001 ft 154 kts 230°
2026-05-09 02:22 41.54099 -81.65080 4019 ft 154 kts 230°
2026-05-09 02:22 41.53403 -81.66176 4020 ft 155 kts 230°
2026-05-09 02:22 41.52704 -81.67280 4021 ft 156 kts 230°
2026-05-09 02:22 41.52011 -81.68372 3976 ft 157 kts 230°
2026-05-09 02:23 41.51298 -81.69493 3758 ft 154 kts 230°
2026-05-09 02:23 41.50614 -81.70572 3546 ft 150 kts 230°
2026-05-09 02:23 41.49953 -81.71615 3355 ft 148 kts 230°
2026-05-09 02:23 41.49287 -81.72665 3164 ft 149 kts 230°
2026-05-09 02:24 41.48615 -81.73723 2960 ft 150 kts 230°
2026-05-09 02:24 41.47947 -81.74780 2765 ft 149 kts 229°
2026-05-09 02:24 41.47277 -81.75836 2568 ft 150 kts 228°
2026-05-09 02:24 41.46602 -81.76899 2372 ft 150 kts 229°
2026-05-09 02:25 41.45929 -81.77964 2158 ft 150 kts 228°
2026-05-09 02:25 41.45256 -81.79026 1957 ft 150 kts 228°
2026-05-09 02:25 41.44571 -81.80078 1747 ft 149 kts 226°
2026-05-09 02:25 41.43921 -81.81126 1628 ft 151 kts 229°
2026-05-09 02:26 41.43249 -81.82196 1382 ft 151 kts 227°
2026-05-09 02:26 41.42563 -81.83286 1152 ft 152 kts 229°
2026-05-09 02:26 41.41888 -81.84346 930 ft 152 kts 229°
2026-05-09 02:26 41.41222 -81.85397 783 ft 142 kts 229°
2026-05-09 02:27 41.40673 -81.86265 783 ft 101 kts 230°
2026-05-09 02:27 41.40312 -81.86832 783 ft 56 kts 230°
2026-05-09 02:27 41.40169 -81.87049 784 ft 15 kts 215°
2026-05-09 02:27 41.40094 -81.87051 783 ft 3 kts 170°
2026-05-09 02:28 41.40070 -81.87040 783 ft 5 kts 155°
2026-05-09 02:28 41.40012 -81.86977 782 ft 18 kts 138°
2026-05-09 02:28 41.39910 -81.86864 782 ft 19 kts 140°
2026-05-09 02:28 41.39810 -81.86754 782 ft 18 kts 142°
2026-05-09 02:29 41.39731 -81.86633 782 ft 17 kts 88°
2026-05-09 02:29 41.39770 -81.86568 782 ft 8 kts 44°
2026-05-09 02:29 41.39806 -81.86514 782 ft 8 kts 53°
2026-05-09 02:29 41.39845 -81.86448 782 ft 11 kts 52°
2026-05-09 02:30 41.39906 -81.86352 782 ft 16 kts 48°
2026-05-09 02:30 41.39993 -81.86219 782 ft 21 kts 49°
2026-05-09 02:30 41.40096 -81.86049 782 ft 26 kts 51°
2026-05-09 02:30 41.40248 -81.85942 782 ft 25 kts 14°
2026-05-09 02:31 41.40377 -81.85805 782 ft 23 kts 51°
2026-05-09 02:31 41.40479 -81.85644 782 ft 23 kts 49°
2026-05-09 02:31 41.40581 -81.85490 782 ft 22 kts 47°
2026-05-09 02:31 41.40655 -81.85321 781 ft 21 kts 89°
2026-05-09 02:32 41.40643 -81.85128 782 ft 21 kts 94°
2026-05-09 02:32 41.40637 -81.84939 782 ft 20 kts 92°
2026-05-09 02:32 41.40631 -81.84756 782 ft 19 kts 92°
2026-05-09 02:32 41.40622 -81.84581 782 ft 19 kts 96°
2026-05-09 02:33 41.40648 -81.84435 782 ft 17 kts 26°
2026-05-09 02:33 41.40762 -81.84433 782 ft 16 kts 358°
2026-05-09 02:33 41.40843 -81.84436 782 ft 8 kts 358°
2026-05-09 02:33 41.40890 -81.84417 782 ft 6 kts 38°
2026-05-09 02:34 41.40891 -81.84415 782 ft 0 kts 39°
2026-05-09 02:34 41.40898 -81.84408 782 ft 5 kts 39°
2026-05-09 02:34 41.40946 -81.84377 782 ft 10 kts
2026-05-09 02:34 41.41033 -81.84378 782 ft 14 kts 359°
2026-05-09 02:35 41.41057 -81.84311 782 ft 11 kts 94°
2026-05-09 02:35 41.41082 -81.84245 782 ft 9 kts 43°
2026-05-09 02:35 41.41113 -81.84195 781 ft 3 kts 52°
2026-05-09 02:35 41.41115 -81.84190 781 ft 0 kts 52°